Showing default

TIGER-5, 58277

Orbit data source: Space-Track

TIGER-5, 58277 is a payload satellite owned by OQ Tech (RW) in SSO that was launched on Sat, 11 Nov 2023 UTC via an FALCON 9 launch vehicle from the Air Force Western Test Range (AFWTR). Payload-class satellites include a variety of spacecraft equipped with specific instruments for various scientific and technological missions. These include communications satellites like Starlink; space stations such as the ISS; scientific satellites like the Hubble; Earth observation satellites from companies like Planet Labs, Umbra, and HawkEye 360; GPS; miniature CubeSats for education and research; and military/defense satellites.

Loading next visibility...
Identifier
58277, 2023-174X
Orbit
SSO
Country
Flag of RWRW / RWA
Related business
Manufacturer
Space Inventor
Mission
Operational Commercial Communications
Bus & Motor
CUBESAT 6U, Unknown motor
Mass
~10 kg wet, ~10 kg dry
Launch date (UTC)
2023-11-11 (2 years ago)
Launch vehicle
FALCON 9
Launch site
Air Force Western Test Range (AFWTR)
Object type
Payload
Rocket body
Debris
Shape & HBR
Box + 2 Pan, 0.1 m
Radar Cross Section
0.080 m², Medium (>0.1 m² and < 1m²)

Expand to show TLE details & history
Last TLE update: 1 day ago

TLE from 1 day ago
0 TIGER-5
1 58277U 23174X   25300.68048874  .00052148  00000-0  85627-3 0  9992
2 58277  97.4046  24.3774 0004414 247.3912 112.6874 15.52245113109984
Epoch: 2025-10-27T16:19Z
TLE epoch observation values (Epoch: 2025-10-27T16:19:54.227Z)
Latitude
0.00001°
Longitude
103.1226°
Altitude
414.464 km
Speed
7.662 km/s
True Right ascension
01h 37m 30s
True Declination
0° 00' 00"
Sunlit
Object was in full shadow at epoch
Visualization orbit readout
Latitude
Unknown
Longitude
Unknown
Altitude
Unknown
Speed
Unknown
Apparent Right ascension
Unknown
Apparent Declination
Unknown
Sunlit
N/A
Visualization observer readout
Local Sidereal Time
12:05:38
Azimuth
Unknown
Elevation
Unknown
Doppler factor
Unknown
Orbital elements
Apogee altitude
410.091 km
Perigee altitude
404.101 km
Semi-major axis
6,785.233 km
Eccentricity
0.00044
Inclination
97.4046°
RAAN
24.3774°
Arg. of periapsis
247.3912°
True anomaly
112.73406°
Mean anomaly
112.6874°
Eccentric anomaly
112.71073°
Mean motion
3.88326 °/min
Orbital period
92.71 mins
BSTAR
0.00085627
Loading maneuver chart data...
Computing Atmospheric mass density...
Loading historical data...
Loading historical data...
Loading historical data...
Loading historical data...
Loading historical data...
Loading historical data...
Loading historical data...

Documentation

Showing up to 5 results
|